sat.trackr.live / text

‹ back to catalog

STARLINK-2525

NORAD 48482 · 2021-040BG

PAYLOAD ACTIVE UNKNOWN

§ Identity

Operator
Country
US
Launch date
2021-05-09
Launch site
AFETR
Launch vehicle
Mass (kg)
RCS (m²)

Purposes: comms

External: N2YO · Heavens-Above · Gunter

§ Orbital elements

Epoch: 2026-09-12T16:18:06.617664Z

Period
94.01 min
Inclination
53.1612°
Eccentricity
0.0001366
Mean motion
15.31698938 rev/d
Perigee alt
469.8 km
Apogee alt
471.7 km
Semi-major
6,848.9 km
B*
1.4678e-4
RAAN
43.7067°
Arg perigee
67.8761°
Mean anomaly
292.2386°
Rev number
29,511

§ Raw data

STARLINK-25251 48482U 21040BG  26255.67924326  .00004192  00000+0  14678-3 0  99962 48482  53.1612  43.7067 0001366  67.8761 292.2386 15.31698938295117

JSON: /api/v1/satellites/48482 · /tle

For live sub-satellite position, see the globe view (requires WebGL).

§ Visibility from observer

Set your observer location to see the next 7 days of passes ≥ 10°. The values pass through the URL so the page stays shareable.

No JS? Fill the form by hand. The geolocation button needs JavaScript.